User: anonymous   Login
Location: Buffign�court
(47.8126°N, 6.0176°E)
Time: 11:58:14
(UTC+00:00)
Language:

Cosmos 2322 - Orbit

View from above orbital plane
View from above orbital plane
View from above satellite
View from above satellite

Ground track
Ground track

The orbit data is extracted from the following two-line orbital elements,

1 23704U 95058A   21260.83388151  .00000040  00000-0  46338-4 0  9993
2 23704  70.9859  27.2329 0011553 261.5637  98.4175 14.13430355335167
Epoch (UTC): 17 September 2021 20:00:47
Eccentricity: 0.0011553
inclination: 70.9859°
perigee height: 839 km
apogee height: 856 km
right ascension of ascending node: 27.2329°
argument of perigee: 261.5637°
revolutions per day: 14.13430355
mean anomaly at epoch: 98.4175°
orbit number at epoch: 33516

The dashed part of the orbit path shows where the satellite is in the earth's shadow,  

DLR